Погода в Обусе

Россия / Иркутская область     53°43′19″N   103°50′20″E
темп.,
°C
ветер,
м/с
пор.,
м/с
влажн.,
%
обл.,
%
осадки,
мм/ч
давл.,
гПа
погр.,
м
12 мая, ср
ср1223:00+7зсз006554 0.0 101410
02:00+5сз117974 0.3 101410
05:00+4сз118687 0.2 101313
08:00+7ссз247479 0.2 1013549
11:00+5ссз2487100 1.6 1014606
14:00+8ссз465696 1.8 10131779
17:00+11сз582821 0.0 10112691
20:00+7ссз494077 0.0 1013596
13 мая, чт
чт1323:00+2с23633 0.0 101654
02:000ссв22685 0.0 101626
05:00−1с227221 0.0 101736
08:00+4с35482 0.0 10171199
11:00+5ссз4537100 0.0 10172144
14:00+8ссз4528100 0.1 10163132
17:00+8ссз4534100 0.0 10162271
20:00+6сз224296 0.0 101740
14 мая, пт
пт1423:00+2св22620 0.0 101911
02:000ссв11720 0.0 102010
05:00−1св11781 0.0 102010
08:00+6вюв11520 0.0 1018315
11:00+11ююз22340 0.0 10161260
14:00+13ююз22260 0.0 10131610
17:00+14ююз22210 0.0 10111923
20:00+11юв11330 0.0 101210
15 мая, сб
сб1523:00+6в22395 0.0 101310
02:00+4в2246100 0.0 101314
05:00+3в22495 0.0 101214
08:00+7зсз233858 0.0 1015576
11:00+7сз7868100 0.0 10171215
14:00+8сз6750100 0.0 10181445
17:00+9сз364298 0.0 10181354
20:00+8юз23485 0.0 101862
16 мая, вс
вс1623:00+4ю2262100 0.0 101917
02:00+3ю228179 0.0 101930
05:00+4ююв248299 0.1 1018117
08:00+5ю2676100 0.1 1018226
11:00+7юз2475100 0.7 1018269
14:00+7юз1588100 1.6 1018271
17:00+8зюз1590100 0.2 1017342
20:00+7ю1195100 0.3 101614